This is the latest recevied weather packets stored in our database for station/object OK1LPD-6. If no packets are shown the sender has not sent any weather packets the latest 1 day(s).
| Time | Temp. | Humidity | Pressure | Rain* | Wind** | Luminosity | Snow |
|---|---|---|---|---|---|---|---|
| 1777981501 | 25.56° C | 35% | 1006.1 hPa | 0 mm | 0 m/s | - | - |
| 1777980883 | 26.11° C | 34% | 1006.4 hPa | 0 mm | 0 m/s | - | - |
| 1777980284 | 24.44° C | 36% | 1006.5 hPa | 0 mm | 0 m/s | - | - |
| 1777979704 | 24.44° C | 38% | 1006.6 hPa | 0 mm | 0 m/s | - | - |
| 1777979083 | 25° C | 40% | 1006.6 hPa | 0 mm | 0 m/s | - | - |
| 1777978484 | 24.44° C | 39% | 1006.8 hPa | 0 mm | 0 m/s | - | - |
| 1777977902 | 24.44° C | 40% | 1006.9 hPa | 0 mm | 0 m/s | - | - |
| 1777977284 | 24.44° C | 40% | 1006.9 hPa | 0 mm | 0 m/s | - | - |
| 1777976684 | 23.89° C | 39% | 1007 hPa | 0 mm | 0 m/s | - | - |
| 1777976105 | 23.89° C | 40% | 1007.1 hPa | 0 mm | 0 m/s | - | - |
| 1777975484 | 23.33° C | 41% | 1007.2 hPa | 0 mm | 0 m/s | - | - |
| 1777974884 | 23.89° C | 41% | 1007.2 hPa | 0 mm | 0 m/s | - | - |
| 1777974304 | 23.33° C | 42% | 1007.4 hPa | 0 mm | 0 m/s | - | - |
| 1777973684 | 23.33° C | 44% | 1007.3 hPa | 0 mm | 0 m/s | - | - |
| 1777973085 | 23.33° C | 44% | 1007.5 hPa | 0 mm | 0 m/s | - | - |
| 1777972507 | 23.33° C | 45% | 1007.4 hPa | 0 mm | 0 m/s | - | - |
| 1777971884 | 22.78° C | 44% | 1007.6 hPa | 0 mm | 0 m/s | - | - |
| 1777971285 | 23.33° C | 43% | 1007.8 hPa | 0 mm | 0 m/s | - | - |
| 1777970704 | 23.33° C | 44% | 1007.8 hPa | 0 mm | 0 m/s | - | - |
| 1777970085 | 22.78° C | 45% | 1008 hPa | 0 mm | 0 m/s | - | - |
| 1777969485 | 23.33° C | 46% | 1008 hPa | 0 mm | 0 m/s | - | - |
| 1777968907 | 25° C | 51% | 1007.9 hPa | 0 mm | 0 m/s | - | - |
| 1777968285 | 24.44° C | 53% | 1008.1 hPa | 0 mm | 0 m/s | - | - |
| 1777967685 | 23.89° C | 53% | 1008 hPa | 0 mm | 0 m/s | - | - |
| 1777967104 | 23.33° C | 56% | 1008.1 hPa | 0 mm | 0 m/s | - | - |
* Rain latest hour (hover to see other rain measurements)
** Current wind speed in m/s (hover to see current wind gust speed)